McAllen, TX

12:41 AM CDT on July 28, 2017 (GMT -0500)
McAllen Miller International

Weather History for KMFE - January, 2013

Change the Weather History Date:

Wednesday, January 16, 2013

  Actual Average Record
Temperature  
Mean Temperature 51 °F 61 °F  
Max Temperature 61 °F 71 °F 88 °F (2006)
Min Temperature 40 °F 51 °F 32 °F (1961)
Degree Days  
Heating Degree Days 14 6  
Month to date heating degree days 130 107  
Since 1 July heating degree days 233 344  
Cooling Degree Days 0 2  
Month to date cooling degree days 16 32  
Year to date cooling degree days 16 32  
Moisture  
Dew Point 23 °F    
Average Humidity 40    
Maximum Humidity 65    
Minimum Humidity 15    
Precipitation  
Precipitation 0.00 in 0.03 in 0.93 in (1988)
Month to date precipitation 0.98 0.53  
Year to date precipitation 0.98 0.53  
Sea Level Pressure  
Sea Level Pressure 30.32 in    
Wind  
Wind Speed 12 mph (NW)    
Max Wind Speed 24 mph    
Max Gust Speed 33 mph    
Visibility 10 miles    
Events      
T = Trace of Precipitation, MM = Missing Value Source: NWS Daily Summary

Daily Weather History Graph

Daily Weather History Graph

Search for Another Location

Airport or City:

Trip Planner

Search our weather history database for the weather conditions in past years. The results will help you decide how hot, cold, wet, or windy it might be!

Date:

Astronomy

Jan. 16, 2013 Rise Set
Actual Time 7:21 AM CST 6:04 PM CST
Civil Twilight 6:57 AM CST 6:28 PM CST
Nautical Twilight 6:28 AM CST 6:57 PM CST
Astronomical Twilight 6:01 AM CST 7:24 PM CST
Moon 10:35 AM CST (1/16) 11:17 PM CST (1/16)
Length of Visible Light 11h 31m
Length of Day
10h 42m
Waxing Crescent, 28% of the Moon is Illuminated
Jan 16
Waxing Crescent
Jan 18
First Quarter
Jan 26
Full
Feb 3
Last Quarter
Feb 10
New

Hourly Weather History & Observations

Time (CST) Temp. Windchill Dew Point Humidity Pressure Visibility Wind Dir Wind Speed Gust Speed Precip Events Conditions
12:53 AM 46.0 °F 40.2 °F 35.1 °F 66% 30.27 in 10.0 mi NNW 12.7 mph - N/A   Overcast
1:53 AM 46.4 °F 39.0 °F 33.8 °F 62% 30.28 in 10.0 mi NNW 19.6 mph 26.5 mph N/A   Overcast
2:53 AM 45.0 °F 37.4 °F 30.0 °F 56% 30.30 in 10.0 mi NNW 18.4 mph 26.5 mph N/A   Overcast
3:53 AM 45.0 °F 38.5 °F 28.0 °F 52% 30.31 in 10.0 mi NW 13.8 mph - N/A   Overcast
4:53 AM 45.0 °F 39.7 °F 28.0 °F 52% 30.32 in 10.0 mi NNW 10.4 mph - N/A   Overcast
5:53 AM 42.1 °F 34.5 °F 28.9 °F 60% 30.34 in 10.0 mi NW 15.0 mph 20.7 mph N/A   Scattered Clouds
6:53 AM 41.0 °F 34.3 °F 27.0 °F 57% 30.37 in 10.0 mi NW 11.5 mph - N/A   Scattered Clouds
7:53 AM 41.0 °F 35.8 °F 26.1 °F 55% 30.39 in 10.0 mi NW 8.1 mph - N/A   Clear
8:53 AM 44.1 °F 38.1 °F 25.0 °F 47% 30.40 in 10.0 mi NNW 11.5 mph - N/A   Clear
9:53 AM 48.9 °F - 21.9 °F 35% 30.41 in 10.0 mi NNW 18.4 mph 24.2 mph N/A   Clear
10:53 AM 51.1 °F - 21.9 °F 32% 30.40 in 10.0 mi NNW 15.0 mph 23.0 mph N/A   Clear
11:53 AM 55.0 °F - 21.9 °F 28% 30.36 in 10.0 mi North 17.3 mph 25.3 mph N/A   Clear
12:53 PM 57.9 °F - 21.9 °F 25% 30.32 in 10.0 mi NNW 17.3 mph 24.2 mph N/A   Clear
1:53 PM 60.1 °F - 18.0 °F 20% 30.27 in 10.0 mi NW 20.7 mph 31.1 mph N/A   Clear
2:53 PM 60.1 °F - 19.0 °F 20% 30.26 in 10.0 mi NNW 19.6 mph 28.8 mph N/A   Clear
3:53 PM 60.1 °F - 15.1 °F 17% 30.25 in 10.0 mi NW 19.6 mph 25.3 mph N/A   Clear
4:53 PM 59.0 °F - 17.1 °F 20% 30.26 in 10.0 mi WNW 12.7 mph 19.6 mph N/A   Clear
5:53 PM 57.9 °F - 10.9 °F 16% 30.28 in 10.0 mi NW 9.2 mph - N/A   Clear
6:53 PM 54.0 °F - 14.0 °F 21% 30.31 in 10.0 mi NW 4.6 mph - N/A   Clear
7:53 PM 48.9 °F - 21.9 °F 35% 30.33 in 10.0 mi WNW 3.5 mph - N/A   Clear
8:53 PM 46.0 °F - 28.9 °F 51% 30.34 in 10.0 mi Calm Calm - N/A   Clear
9:53 PM 48.9 °F - 19.0 °F 31% 30.33 in 10.0 mi North 5.8 mph - N/A   Clear
10:53 PM 46.9 °F - 21.0 °F 36% 30.34 in 10.0 mi Calm Calm - N/A   Clear
11:53 PM 45.0 °F - 24.1 °F 44% 30.35 in 10.0 mi Calm Calm - N/A   Clear